[TLELIST] Archives

 

[TLELIST] Current TLEs

October 22nd 2023 PDT

HST 1 20580U 90037B 23294.89911536 .00005617 00000-0 28679-3 0 9990 2 20580 28.4675 144.1699 0002526 321.3089 59.4519 15.14535022640689 ISS (ZARYA) 1 25544U 98067A 23295.41220898 .00018514 00000-0 33688-3 0 9995 2 25544 51.6437 58.3509 0000761 92.1891 337.5589 15.49550953421522 CXO 1 25867U 99040B 23297.52692204 .00001048 00000-0 00000-0 0 9996 2 25867 37.4700 180.4501 9038080 275.8044 0.7684 0.37810595 13678 ...Continue Reading

[TLELIST] Current TLEs

October 22nd 2023 PDT

HST 1 20580U 90037B 23294.89911536 .00005617 00000-0 28679-3 0 9990 2 20580 28.4675 144.1699 0002526 321.3089 59.4519 15.14535022640689 ISS (ZARYA) 1 25544U 98067A 23295.41220898 .00018514 00000-0 33688-3 0 9995 2 25544 51.6437 58.3509 0000761 92.1891 337.5589 15.49550953421522 CXO 1 25867U 99040B 23297.52692204 .00001048 00000-0 00000-0 0 9996 2 25867 37.4700 180.4501 9038080 275.8044 0.7684 0.37810595 13678 ...Continue Reading

[TLELIST] Current TLEs

October 21st 2023 PDT

HST 1 20580U 90037B 23294.06268237 .00006796 00000-0 34912-3 0 9998 2 20580 28.4674 149.7466 0002513 311.4585 179.7261 15.14526639640817 ISS (ZARYA) 1 25544U 98067A 23294.18414824 .00019389 00000-0 35292-3 0 9996 2 25544 51.6431 64.4302 0000826 84.1345 330.6046 15.49506998421333 CXO 1 25867U 99040B 23294.88112626 .00001142 00000-0 00000-0 0 9992 2 25867 37.4495 180.7575 9037888 275.5671 0.4866 0.37814151 13650 ...Continue Reading

[TLELIST] Current TLEs

October 20th 2023 PDT

HST 1 20580U 90037B 23292.94033051 .00007456 00000-0 38409-3 0 9996 2 20580 28.4676 157.2290 0002492 298.2698 181.3657 15.14513453640381 ISS (ZARYA) 1 25544U 98067A 23293.41011616 .00007376 00000-0 13963-3 0 9997 2 25544 51.6451 68.2683 0000968 50.3812 3.8163 15.49465518421218 CXO 1 25867U 99040B 23294.88112626 .00001142 00000-0 00000-0 0 9992 2 25867 37.4495 180.7575 9037888 275.5671 0.4866 0.37814151 13650 ...Continue Reading

[TLELIST] Current TLEs

October 20th 2023 PDT

HST 1 20580U 90037B 23292.94033051 .00007456 00000-0 38409-3 0 9996 2 20580 28.4676 157.2290 0002492 298.2698 181.3657 15.14513453640381 ISS (ZARYA) 1 25544U 98067A 23293.41011616 .00007376 00000-0 13963-3 0 9997 2 25544 51.6451 68.2683 0000968 50.3812 3.8163 15.49465518421218 CXO 1 25867U 99040B 23294.88112626 .00001142 00000-0 00000-0 0 9992 2 25867 37.4495 180.7575 9037888 275.5671 0.4866 0.37814151 13650 ...Continue Reading

[TLELIST] Current TLEs

October 19th 2023 PDT

HST 1 20580U 90037B 23291.95130855 .00007066 00000-0 36366-3 0 9993 2 20580 28.4678 163.8229 0002457 286.5234 190.0091 15.14500616640235 ISS (ZARYA) 1 25544U 98067A 23292.37849780 .00018002 00000-0 32918-3 0 9991 2 25544 51.6429 73.3797 0001416 108.6154 307.3893 15.49430853421059 CXO 1 25867U 99040B 23294.88112626 .00001142 00000-0 00000+0 0 9991 2 25867 37.4495 180.7575 9037888 275.5671 0.4866 0.37814151 24810 ...Continue Reading

[TLELIST] Current TLEs

October 18th 2023 PDT

HST 1 20580U 90037B 23290.37868112 .00006305 00000-0 32360-3 0 9997 2 20580 28.4682 174.3075 0002412 267.6171 257.6224 15.14480754639996 ISS (ZARYA) 1 25544U 98067A 23291.40629809 .00018869 00000-0 33355-3 0 9999 2 25544 51.6418 78.1860 0004512 109.4274 277.5521 15.50354969420907 CXO 1 25867U 99040B 23292.23865321 .00001138 00000-0 00000-0 0 9991 2 25867 37.4345 181.0593 9038522 275.3294 0.6577 0.37815948 13648 ...Continue Reading

[TLELIST] Current TLEs

October 18th 2023 PDT

HST 1 20580U 90037B 23290.37868112 .00006305 00000-0 32360-3 0 9997 2 20580 28.4682 174.3075 0002412 267.6171 257.6224 15.14480754639996 ISS (ZARYA) 1 25544U 98067A 23291.40629809 .00018869 00000-0 33355-3 0 9999 2 25544 51.6418 78.1860 0004512 109.4274 277.5521 15.50354969420907 CXO 1 25867U 99040B 23292.23865321 .00001138 00000-0 00000-0 0 9991 2 25867 37.4345 181.0593 9038522 275.3294 0.6577 0.37815948 13648 ...Continue Reading

[TLELIST] Current TLEs

October 18th 2023 PDT

HST 1 20580U 90037B 23290.37868112 .00006305 00000-0 32360-3 0 9997 2 20580 28.4682 174.3075 0002412 267.6171 257.6224 15.14480754639996 ISS (ZARYA) 1 25544U 98067A 23291.40629809 .00018869 00000-0 33355-3 0 9999 2 25544 51.6418 78.1860 0004512 109.4274 277.5521 15.50354969420907 CXO 1 25867U 99040B 23292.23865321 .00001138 00000-0 00000-0 0 9991 2 25867 37.4345 181.0593 9038522 275.3294 0.6577 0.37815948 13648 ...Continue Reading

[TLELIST] Current TLEs

October 17th 2023 PDT

HST 1 20580U 90037B 23289.97323681 .00006789 00000-0 34925-3 0 9993 2 20580 28.4685 177.0104 0002415 262.3981 207.9072 15.14476286640194 ISS (ZARYA) 1 25544U 98067A 23290.31856001 .00019342 00000-0 34217-3 0 9999 2 25544 51.6415 83.5768 0004678 110.7075 321.3815 15.50314567420733 CXO 1 25867U 99040B 23292.23865321 .00001138 00000-0 00000-0 0 9991 2 25867 37.4345 181.0593 9038522 275.3294 0.6577 0.37815948 13648 ...Continue Reading
  • This mailing list is a public mailing list - anyone may join or leave, at any time.
  • This mailing list is announce-only.

International Space Station (ISS) / Hubble Space Telescope (HST) / Chandra X-Ray Observatory Orbital Data via EMAIL

Privacy Policy:

Private list